STARLINK-36063 (66606 NORAD) Tracking and Keplerian Element Data

This shows tracking and keplerian element data for the satellite.

Feedback or suggestion? Click here.




ElementValue
Catalog66606
NameSTARLINK-36063
Epoch Orbit539
Epoch Day353.49190407
Epoch Year2025
RAAN153.1595
Inclination42.9987
Eccentricity0.0001816
Argument of Perigee282.0515
Mean Anonmoly78.0141
Mean Motion15.50662232
Decay Rate0.0004682
L11 66606U 25270U 25353.49190407 .00046820 00000+0 79676-3 0 9999
L22 66606 42.9987 153.1595 0001816 282.0515 78.0141 15.50662232 5393



Live tracking and technical data element details for STARLINK-36063 (NORAD 66606). STARLINK-36063 can be tracked NOW for your location showing map with azimuth and elevation plus other details from your city location.







IsCatalogInMostPopularTable: catalog: 66606, numindb: 17
Update: records affected: 1



GetName: 66606 STARLINK-36063

Hit Count: updated at: Tue, 21 Apr 2026 19:03:03 GMT